Flag for Portugal Weather past 2 weeks in Porto, Portugal

Now
52 °F

Clear.


Feels Like: 52 °F
Forecast: 42 / 57 °F
Wind: 1 mph from North

Location: Porto / Pedras Rubras


UV Index: 3 (Moderate)

Visibility: 10 mi


Pressure: 30.15 "Hg

Humidity: 88%

Dew point: 48 °F

Location of PortoLocation

Historic Weather in Porto

°F

Porto temperature yesterday

Maximum temperature yesterday: 64 °F (at 12:30 PM)
Minimum temperature yesterday: 52 °F (at 3:30 AM)
Average temperature yesterday: 59 °F

Past Weeks' High & Low Weather Summary

 TemperatureHumidityPressure
High81 °F (Apr 9, 2:30 PM)100% (Apr 11, 12:00 AM)30.18 "Hg (Apr 11, 12:00 AM)
Low46 °F (Apr 21, 3:00 AM)42% (Apr 9, 2:30 PM)29.62 "Hg (Apr 20, 4:30 PM)
Average60 °F82%29.96 "Hg
* Reported Apr 8 9:00 PM — Apr 23 9:00 PM, Porto, Weather by CustomWeather, © 2014

Note: Actual official high and low records may vary slightly from our data, if they occured in-between our weather recording intervals... More about our weather records

Advertising

Historic Weather Conditions — Data for Previous 24 hours

 ConditionsComfort  
Time TempWeatherWind HumidityBarometerVisibility
9:00 PM
Apr 23
54 °FSunny.1 mph77%30.15 "Hg10 mi
8:30 PM55 °FSunny.2 mph72%30.15 "Hg10 mi
8:00 PM57 °FPassing clouds.5 mph63%30.15 "HgN/A
7:30 PM59 °FPassing clouds.7 mph68%30.15 "HgN/A
7:00 PM59 °FPassing clouds.6 mph63%30.15 "HgN/A
6:30 PM59 °FPassing clouds.8 mph68%30.15 "HgN/A
6:00 PM61 °FPassing clouds.7 mph59%30.15 "HgN/A
5:00 PM61 °FPassing clouds.8 mph59%30.15 "HgN/A
4:30 PM61 °FPassing clouds.6 mph59%30.15 "HgN/A
4:00 PM61 °FScattered clouds.9 mph63%30.15 "HgN/A
3:30 PM61 °FScattered clouds.7 mph63%30.15 "HgN/A
3:00 PM61 °FScattered clouds.8 mph63%30.15 "HgN/A
2:30 PM63 °FScattered clouds.8 mph64%30.18 "HgN/A
2:00 PM61 °FScattered clouds.8 mph68%30.18 "HgN/A
1:30 PM61 °FScattered clouds.8 mph68%30.18 "HgN/A
1:00 PM61 °FScattered clouds.8 mph63%30.18 "HgN/A
12:30 PM61 °FScattered clouds.8 mph63%30.15 "HgN/A
12:00 PM61 °FScattered clouds.7 mph68%30.15 "HgN/A
11:30 AM61 °FScattered clouds.6 mph63%30.15 "HgN/A
11:00 AM59 °FScattered clouds.6 mph68%30.15 "HgN/A
10:30 AM59 °FScattered clouds.5 mph68%30.15 "HgN/A
10:00 AM59 °FScattered clouds.5 mph68%30.15 "HgN/A
9:30 AM59 °FScattered clouds.3 mph68%30.12 "HgN/A
9:00 AM59 °FScattered clouds.2 mph72%30.12 "HgN/A
8:30 AM57 °FScattered clouds.1 mph88%30.12 "HgN/A
8:00 AM55 °FScattered clouds.2 mph94%30.09 "HgN/A
7:30 AM52 °FPassing clouds.1 mph94%30.09 "HgN/A
7:00 AM52 °FPassing clouds.2 mph94%30.09 "HgN/A
6:30 AM52 °FPassing clouds.1 mph88%30.07 "HgN/A
6:00 AM54 °FPassing clouds.5 mph88%30.07 "HgN/A
5:30 AM54 °FPassing clouds.6 mph88%30.07 "HgN/A
5:00 AM54 °FPassing clouds.6 mph94%30.04 "HgN/A
4:30 AM54 °FPassing clouds.5 mph94%30.04 "HgN/A
4:00 AM54 °FSprinkles. Partly cloudy.6 mph94%30.04 "Hg5 mi
3:30 AM54 °FLight rain. Passing clouds.8 mph94%30.01 "HgN/A
3:00 AM55 °FRain. Partly cloudy.16 mph94%30.01 "Hg4 mi
2:30 AM57 °FLight rain. Partly cloudy.18 mph88%30.01 "HgN/A
2:00 AM57 °FLight rain. Passing clouds.17 mph94%30.01 "HgN/A
1:30 AM57 °FLight rain. Passing clouds.15 mph94%30.01 "HgN/A
1:00 AM57 °FLight rain. Partly cloudy.16 mph94%30.01 "Hg6 mi
12:30 AM57 °FRain. Passing clouds.20 mph94%30.01 "Hg5 mi
12:00 AM57 °FLight rain. Partly cloudy.16 mph94%30.04 "HgN/A
11:30 PM
Apr 22
59 °FLight rain. Passing clouds.16 mph88%30.04 "HgN/A
11:00 PM59 °FLight rain. Passing clouds.15 mph88%30.01 "HgN/A
10:30 PM59 °FPassing clouds.16 mph88%30.01 "HgN/A
10:00 PM59 °FPassing clouds.14 mph82%30.01 "HgN/A
Weather by CustomWeather, © 2014

See weather overview